time, Switch, Flow(0), Analog(2)
yyyy/mm/dd HH:MM:SS.fff, True=FILTERED|False=TOTAL, L/min, V
2023/06/29 02:00:01.009, True, 4.726, 0.129702
2023/06/29 02:00:01.506, True, 4.708, 0.128023
2023/06/29 02:00:02.010, True, 4.974, 0.126879
2023/06/29 02:00:02.514, True, 4.974, 0.128710
2023/06/29 02:00:03.010, True, 4.717, 0.127184
2023/06/29 02:00:03.514, True, 4.652, 0.127794
2023/06/29 02:00:04.018, True, 3.971, 0.129015
2023/06/29 02:00:04.514, True, 3.032, 0.129854
2023/06/29 02:00:05.018, True, 1.990, 0.129702
2023/06/29 02:00:05.522, True, 1.991, 0.128786
2023/06/29 02:00:06.017, True, 2.020, 0.129244
2023/06/29 02:00:06.522, True, 1.990, 0.128710
2023/06/29 02:00:07.026, True, 1.658, 0.129549
2023/06/29 02:00:07.522, True, 2.022, 0.128557
2023/06/29 02:00:08.025, True, 1.991, 0.126650
2023/06/29 02:00:08.530, True, 1.989, 0.129168
2023/06/29 02:00:09.026, True, 1.684, 0.128176
2023/06/29 02:00:09.530, True, 1.990, 0.130007
2023/06/29 02:00:10.034, True, 1.992, 0.127642
2023/06/29 02:00:10.530, True, 2.019, 0.130541
2023/06/29 02:00:11.034, True, 1.658, 0.129091
2023/06/29 02:00:11.538, True, 1.990, 0.128939
2023/06/29 02:00:12.034, True, 2.022, 0.127718
2023/06/29 02:00:12.537, True, 1.993, 0.127871
2023/06/29 02:00:13.042, True, 1.986, 0.128405
2023/06/29 02:00:13.538, True, 2.022, 0.129244
2023/06/29 02:00:14.042, True, 2.325, 0.129931
2023/06/29 02:00:14.546, True, 1.987, 0.130007
2023/06/29 02:00:15.050, True, 1.989, 0.131151
2023/06/29 02:00:15.546, True, 2.022, 0.127337
2023/06/29 02:00:16.050, True, 1.990, 0.128634
2023/06/29 02:00:16.554, True, 1.990, 0.129168
2023/06/29 02:00:17.049, True, 2.026, 0.129397
2023/06/29 02:00:17.554, True, 1.655, 0.129244
2023/06/29 02:00:18.058, True, 1.990, 0.130694
2023/06/29 02:00:18.554, True, 2.021, 0.128405
2023/06/29 02:00:19.058, True, 1.658, 0.130312
2023/06/29 02:00:19.562, True, 1.990, 0.130083
2023/06/29 02:00:20.058, True, 2.022, 0.127718
2023/06/29 02:00:20.562, True, 1.990, 0.129015
2023/06/29 02:00:21.066, True, 1.658, 0.131075
2023/06/29 02:00:21.562, True, 1.688, 0.129702
2023/06/29 02:00:22.066, True, 1.985, 0.129168
2023/06/29 02:00:22.570, True, 1.658, 0.127718
2023/06/29 02:00:23.066, True, 2.021, 0.130312
2023/06/29 02:00:23.570, True, 1.658, 0.129015
2023/06/29 02:00:24.066, True, 2.022, 0.127871
2023/06/29 02:00:24.570, True, 1.990, 0.128939
2023/06/29 02:00:25.074, True, 1.658, 0.128634
2023/06/29 02:00:25.570, True, 2.022, 0.129015
2023/06/29 02:00:26.074, True, 1.990, 0.129397
2023/06/29 02:00:26.578, True, 1.991, 0.128023
2023/06/29 02:00:27.074, True, 2.020, 0.128557
2023/06/29 02:00:27.578, True, 1.990, 0.131609
2023/06/29 02:00:28.082, True, 1.989, 0.128862
2023/06/29 02:00:28.586, True, 1.990, 0.128328
2023/06/29 02:00:29.082, True, 1.684, 0.128481
2023/06/29 02:00:29.586, True, 1.990, 0.128023
2023/06/29 02:00:30.082, True, 2.359, 0.130007
2023/06/29 02:00:30.585, True, 1.990, 0.128634
2023/06/29 02:00:31.090, True, 1.658, 0.130846
2023/06/29 02:00:31.586, True, 2.022, 0.129702
2023/06/29 02:00:32.090, True, 1.990, 0.128710
2023/06/29 02:00:32.594, True, 1.658, 0.129778
2023/06/29 02:00:33.090, True, 2.022, 0.127947
2023/06/29 02:00:33.594, True, 1.990, 0.128328
2023/06/29 02:00:34.098, True, 1.658, 0.130541
2023/06/29 02:00:34.594, True, 2.021, 0.129854
2023/06/29 02:00:35.098, True, 1.990, 0.128634
2023/06/29 02:00:35.602, True, 1.991, 0.130083
2023/06/29 02:00:36.098, True, 2.021, 0.129244
2023/06/29 02:00:36.602, True, 1.658, 0.130007
2023/06/29 02:00:37.105, True, 1.990, 0.131838
2023/06/29 02:00:37.610, True, 1.990, 0.131075
2023/06/29 02:00:38.106, True, 2.022, 0.129931
2023/06/29 02:00:38.610, True, 1.989, 0.131609
2023/06/29 02:00:39.106, True, 2.022, 0.131685
2023/06/29 02:00:39.610, True, 2.321, 0.128939
2023/06/29 02:00:40.114, True, 1.990, 0.130770
2023/06/29 02:00:40.610, True, 1.685, 0.130159
2023/06/29 02:00:41.114, True, 1.990, 0.131991
2023/06/29 02:00:41.618, True, 1.990, 0.131838
2023/06/29 02:00:42.114, True, 2.022, 0.131456
2023/06/29 02:00:42.618, True, 1.990, 0.133059
2023/06/29 02:00:43.122, True, 1.990, 0.133745
2023/06/29 02:00:43.618, True, 2.021, 0.138323
2023/06/29 02:00:44.122, True, 1.990, 0.131685
2023/06/29 02:00:44.626, True, 1.990, 0.133135
2023/06/29 02:00:45.122, True, 2.022, 0.133516
2023/06/29 02:00:45.625, True, 1.990, 0.135805
2023/06/29 02:00:46.129, True, 1.658, 0.132525
2023/06/29 02:00:46.626, True, 2.022, 0.133288
2023/06/29 02:00:47.130, True, 1.992, 0.133516
2023/06/29 02:00:47.634, True, 1.656, 0.134127
2023/06/29 02:00:48.129, True, 2.022, 0.133822
2023/06/29 02:00:48.634, True, 1.661, 0.136263
2023/06/29 02:00:49.138, True, 1.986, 0.133974
2023/06/29 02:00:49.641, True, 1.660, 0.133135
2023/06/29 02:00:50.138, True, 2.021, 0.135195
2023/06/29 02:00:50.642, True, 1.987, 0.134432
2023/06/29 02:00:51.146, True, 1.990, 0.137713
2023/06/29 02:00:51.642, True, 2.025, 0.136873
2023/06/29 02:00:52.146, True, 1.658, 0.134432
2023/06/29 02:00:52.650, True, 2.317, 0.131991
2023/06/29 02:00:53.146, True, 1.685, 0.135805
2023/06/29 02:00:53.650, True, 1.990, 0.134051
2023/06/29 02:00:54.154, True, 1.989, 0.135424
2023/06/29 02:00:54.650, True, 2.024, 0.135729
2023/06/29 02:00:55.154, True, 1.988, 0.136721
2023/06/29 02:00:55.658, True, 1.989, 0.133822
2023/06/29 02:00:56.154, True, 2.024, 0.135195
2023/06/29 02:00:56.658, True, 1.988, 0.135653
2023/06/29 02:00:57.162, True, 1.991, 0.133745
2023/06/29 02:00:57.658, True, 2.020, 0.136263
2023/06/29 02:00:58.162, True, 1.990, 0.135576
2023/06/29 02:00:58.666, True, 1.989, 0.136187
2023/06/29 02:00:59.162, True, 2.021, 0.134661
2023/06/29 02:00:59.666, True, 1.991, 0.135119
2023/06/29 02:01:00.170, True, 1.658, 0.134051
2023/06/29 02:01:00.666, True, 2.020, 0.134890
2023/06/29 02:01:01.170, True, 1.658, 0.136263
2023/06/29 02:01:01.674, True, 1.991, 0.136263
2023/06/29 02:01:02.170, True, 2.020, 0.133211
2023/06/29 02:01:02.674, True, 1.989, 0.134432
2023/06/29 02:01:03.178, True, 1.992, 0.137560
2023/06/29 02:01:03.674, True, 1.686, 0.137026
2023/06/29 02:01:04.178, True, 1.986, 0.137102
2023/06/29 02:01:04.682, True, 1.989, 0.135653
2023/06/29 02:01:05.178, True, 2.022, 0.138018
2023/06/29 02:01:05.681, True, 1.658, 0.137102
2023/06/29 02:01:06.186, True, 1.990, 0.136797
2023/06/29 02:01:06.682, True, 2.022, 0.136416
2023/06/29 02:01:07.186, True, 1.989, 0.137179
2023/06/29 02:01:07.690, True, 2.321, 0.137255
2023/06/29 02:01:08.186, True, 2.022, 0.134966
2023/06/29 02:01:08.690, True, 1.990, 0.137636
2023/06/29 02:01:09.186, True, 2.022, 0.137026
2023/06/29 02:01:09.690, True, 1.990, 0.135042
2023/06/29 02:01:10.194, True, 1.990, 0.134356
2023/06/29 02:01:10.690, True, 2.022, 0.136416
2023/06/29 02:01:11.194, True, 1.990, 0.138781
2023/06/29 02:01:11.698, True, 1.990, 0.135653
2023/06/29 02:01:12.193, True, 1.685, 0.138170
2023/06/29 02:01:12.698, True, 2.321, 0.135348
2023/06/29 02:01:13.202, True, 1.658, 0.136492
2023/06/29 02:01:13.698, True, 2.022, 0.137789
2023/06/29 02:01:14.202, True, 1.990, 0.135042
2023/06/29 02:01:14.706, True, 1.990, 0.140764
2023/06/29 02:01:15.202, True, 2.021, 0.137026
2023/06/29 02:01:15.706, True, 1.990, 0.135042
2023/06/29 02:01:16.210, True, 1.989, 0.135042
2023/06/29 02:01:16.706, True, 2.022, 0.137026
2023/06/29 02:01:17.210, True, 1.658, 0.134813
2023/06/29 02:01:17.714, True, 1.989, 0.136492
2023/06/29 02:01:18.210, True, 2.022, 0.135576
2023/06/29 02:01:18.714, True, 1.992, 0.135576
2023/06/29 02:01:19.218, True, 1.987, 0.136568
2023/06/29 02:01:19.714, True, 2.022, 0.135042
2023/06/29 02:01:20.218, True, 1.990, 0.138170
2023/06/29 02:01:20.722, True, 1.989, 0.137255
2023/06/29 02:01:21.218, True, 2.022, 0.137102
2023/06/29 02:01:21.722, True, 1.989, 0.137942
2023/06/29 02:01:22.226, True, 1.990, 0.136568
2023/06/29 02:01:22.722, True, 2.022, 0.137636
2023/06/29 02:01:23.226, True, 1.990, 0.136034
2023/06/29 02:01:23.730, True, 1.990, 0.134585
2023/06/29 02:01:24.226, True, 2.021, 0.136263
2023/06/29 02:01:24.730, True, 2.321, 0.136797
2023/06/29 02:01:25.234, True, 1.658, 0.135500
2023/06/29 02:01:25.730, True, 2.022, 0.135424
2023/06/29 02:01:26.234, True, 1.991, 0.135653
2023/06/29 02:01:26.738, True, 1.658, 0.135729
2023/06/29 02:01:27.234, True, 2.019, 0.136263
2023/06/29 02:01:27.738, True, 1.990, 0.135958
2023/06/29 02:01:28.234, True, 2.023, 0.136110
2023/06/29 02:01:28.738, True, 1.657, 0.136187
2023/06/29 02:01:29.242, True, 1.990, 0.136721
2023/06/29 02:01:29.738, True, 1.685, 0.135729
2023/06/29 02:01:30.242, True, 1.990, 0.134966
2023/06/29 02:01:30.746, True, 1.658, 0.134661
2023/06/29 02:01:31.242, True, 2.022, 0.135729
2023/06/29 02:01:31.746, True, 1.658, 0.135958
2023/06/29 02:01:32.250, True, 1.990, 0.135805
2023/06/29 02:01:32.753, True, 1.992, 0.137255
2023/06/29 02:01:33.250, True, 2.019, 0.136568
2023/06/29 02:01:33.754, True, 2.321, 0.133974
2023/06/29 02:01:34.258, True, 1.989, 0.137255
2023/06/29 02:01:34.754, True, 1.685, 0.136263
2023/06/29 02:01:35.258, True, 1.990, 0.135042
2023/06/29 02:01:35.761, True, 1.990, 0.136873
2023/06/29 02:01:36.258, True, 1.684, 0.133974
2023/06/29 02:01:36.762, True, 1.990, 0.134585
2023/06/29 02:01:37.265, True, 1.991, 0.135271
2023/06/29 02:01:37.762, True, 2.019, 0.137407
2023/06/29 02:01:38.266, True, 1.990, 0.137484
2023/06/29 02:01:38.770, True, 1.658, 0.133745
2023/06/29 02:01:39.266, True, 2.021, 0.137484
2023/06/29 02:01:39.770, True, 1.990, 0.134966
2023/06/29 02:01:40.274, True, 1.993, 0.137713
2023/06/29 02:01:40.770, True, 1.682, 0.136263
2023/06/29 02:01:41.274, True, 2.321, 0.136034
2023/06/29 02:01:41.777, True, 1.992, 0.134661
2023/06/29 02:01:42.274, True, 1.683, 0.133440
2023/06/29 02:01:42.778, True, 1.990, 0.134127
2023/06/29 02:01:43.282, True, 1.989, 0.134508
2023/06/29 02:01:43.778, True, 2.022, 0.134127
2023/06/29 02:01:44.282, True, 1.989, 0.134127
2023/06/29 02:01:44.786, True, 1.990, 0.133822
2023/06/29 02:01:45.282, True, 2.022, 0.133364
2023/06/29 02:01:45.786, True, 1.991, 0.134890
2023/06/29 02:01:46.290, True, 1.989, 0.135805
2023/06/29 02:01:46.786, True, 2.022, 0.132677
2023/06/29 02:01:47.290, True, 1.989, 0.137102
2023/06/29 02:01:47.794, True, 1.991, 0.134813
2023/06/29 02:01:48.290, True, 2.022, 0.133898
2023/06/29 02:01:48.794, True, 1.657, 0.134432
2023/06/29 02:01:49.298, True, 1.991, 0.135958
2023/06/29 02:01:49.794, True, 1.685, 0.133974
2023/06/29 02:01:50.298, True, 1.988, 0.133669
2023/06/29 02:01:50.802, True, 1.991, 0.135042
2023/06/29 02:01:51.298, True, 1.685, 0.132906
2023/06/29 02:01:51.802, True, 2.322, 0.133898
2023/06/29 02:01:52.306, True, 1.988, 0.137102
2023/06/29 02:01:52.802, True, 1.686, 0.135500
2023/06/29 02:01:53.306, True, 1.987, 0.135576
2023/06/29 02:01:53.810, True, 1.993, 0.134356
2023/06/29 02:01:54.306, True, 2.018, 0.134432
2023/06/29 02:01:54.810, True, 1.992, 0.134585
2023/06/29 02:01:55.313, True, 1.990, 0.132906
2023/06/29 02:01:55.810, True, 1.683, 0.132372
2023/06/29 02:01:56.314, True, 1.989, 0.133516
2023/06/29 02:01:56.818, True, 1.990, 0.133669
2023/06/29 02:01:57.314, True, 1.687, 0.133669
2023/06/29 02:01:57.818, True, 1.987, 0.135424
2023/06/29 02:01:58.322, True, 1.989, 0.133822
2023/06/29 02:01:58.818, True, 2.022, 0.133593
2023/06/29 02:01:59.322, True, 1.989, 0.134890
2023/06/29 02:01:59.825, True, 1.992, 0.136568
2023/06/29 02:02:00.322, True, 2.019, 0.134432
2023/06/29 02:02:00.826, True, 1.989, 0.134203
2023/06/29 02:02:01.330, True, 1.658, 0.134203
2023/06/29 02:02:01.826, True, 2.026, 0.133974
2023/06/29 02:02:02.330, True, 1.986, 0.133135
2023/06/29 02:02:02.834, True, 1.658, 0.135729
2023/06/29 02:02:03.338, True, 1.994, 0.135805
2023/06/29 02:02:03.834, True, 1.681, 0.135119
2023/06/29 02:02:04.338, True, 1.990, 0.135348
2023/06/29 02:02:04.841, True, 1.990, 0.133288
2023/06/29 02:02:05.338, True, 1.684, 0.135348
2023/06/29 02:02:05.842, True, 1.658, 0.135958
2023/06/29 02:02:06.346, True, 1.990, 0.135195
2023/06/29 02:02:06.842, True, 2.021, 0.135882
2023/06/29 02:02:07.346, True, 1.990, 0.134203
2023/06/29 02:02:07.850, True, 1.990, 0.134051
2023/06/29 02:02:08.346, True, 2.022, 0.135042
2023/06/29 02:02:08.850, True, 1.989, 0.134813
2023/06/29 02:02:09.354, True, 1.990, 0.133822
2023/06/29 02:02:09.850, True, 2.021, 0.135729
2023/06/29 02:02:10.354, True, 1.991, 0.133135
2023/06/29 02:02:10.858, True, 1.988, 0.135348
2023/06/29 02:02:11.354, True, 2.021, 0.135195
2023/06/29 02:02:11.857, True, 1.990, 0.134051
2023/06/29 02:02:12.361, True, 1.990, 0.137026
2023/06/29 02:02:12.858, True, 2.021, 0.134127
2023/06/29 02:02:13.361, True, 1.990, 0.133593
2023/06/29 02:02:13.866, True, 1.990, 0.134432
2023/06/29 02:02:14.361, True, 2.022, 0.133898
2023/06/29 02:02:14.866, True, 1.989, 0.135424
2023/06/29 02:02:15.369, True, 1.990, 0.135195
2023/06/29 02:02:15.866, True, 1.685, 0.135042
2023/06/29 02:02:16.369, True, 1.993, 0.134356
2023/06/29 02:02:16.873, True, 1.986, 0.133516
2023/06/29 02:02:17.370, True, 2.022, 0.136187
2023/06/29 02:02:17.874, True, 1.993, 0.133440
2023/06/29 02:02:18.378, True, 1.656, 0.132677
2023/06/29 02:02:18.874, True, 2.021, 0.133593
2023/06/29 02:02:19.378, True, 1.990, 0.131914
2023/06/29 02:02:19.882, True, 1.989, 0.133822
2023/06/29 02:02:20.378, True, 1.685, 0.133974
2023/06/29 02:02:20.882, True, 1.992, 0.134127
2023/06/29 02:02:21.378, True, 1.685, 0.134813
2023/06/29 02:02:21.882, True, 1.656, 0.136034
2023/06/29 02:02:22.386, True, 1.990, 0.133135
2023/06/29 02:02:22.882, True, 1.686, 0.133822
2023/06/29 02:02:23.386, True, 1.989, 0.133288
2023/06/29 02:02:23.890, True, 1.988, 0.133669
2023/06/29 02:02:24.386, True, 2.024, 0.133211
2023/06/29 02:02:24.890, True, 1.989, 0.133669
2023/06/29 02:02:25.394, True, 1.659, 0.131609
2023/06/29 02:02:25.890, True, 2.019, 0.135042
2023/06/29 02:02:26.394, True, 1.991, 0.134585
2023/06/29 02:02:26.897, True, 1.990, 0.134890
2023/06/29 02:02:27.394, True, 2.022, 0.132982
2023/06/29 02:02:27.898, True, 1.656, 0.134661
2023/06/29 02:02:28.402, True, 1.991, 0.135271
2023/06/29 02:02:28.898, True, 1.684, 0.132219
2023/06/29 02:02:29.402, True, 1.988, 0.134203
2023/06/29 02:02:29.906, True, 1.990, 0.134585
2023/06/29 02:02:30.402, True, 2.021, 0.134279
2023/06/29 02:02:30.906, True, 1.990, 0.134051
2023/06/29 02:02:31.402, True, 2.022, 0.131991
2023/06/29 02:02:31.906, True, 1.990, 0.133822
2023/06/29 02:02:32.410, True, 1.990, 0.134966
2023/06/29 02:02:32.914, True, 1.991, 0.133898
2023/06/29 02:02:33.410, True, 2.020, 0.132753
2023/06/29 02:02:33.914, True, 1.991, 0.133211
2023/06/29 02:02:34.410, True, 1.683, 0.132906
2023/06/29 02:02:34.914, True, 1.991, 0.135042
2023/06/29 02:02:35.418, True, 1.988, 0.132525
2023/06/29 02:02:35.914, True, 1.685, 0.132982
2023/06/29 02:02:36.418, True, 1.989, 0.133059
2023/06/29 02:02:36.914, True, 1.685, 0.132372
2023/06/29 02:02:37.418, True, 1.990, 0.133440
2023/06/29 02:02:37.922, True, 1.658, 0.132525
2023/06/29 02:02:38.418, True, 2.022, 0.134737
2023/06/29 02:02:38.922, True, 1.990, 0.133669
2023/06/29 02:02:39.426, True, 1.660, 0.135348
2023/06/29 02:02:39.922, True, 2.019, 0.133974
2023/06/29 02:02:40.426, True, 1.990, 0.133059
2023/06/29 02:02:40.930, True, 1.989, 0.133516
2023/06/29 02:02:41.426, True, 2.022, 0.133059
2023/06/29 02:02:41.930, True, 1.989, 0.133440
2023/06/29 02:02:42.434, True, 2.322, 0.133745
2023/06/29 02:02:42.930, True, 2.022, 0.131685
2023/06/29 02:02:43.434, True, 1.990, 0.135195
2023/06/29 02:02:43.938, True, 1.990, 0.133516
2023/06/29 02:02:44.442, True, 1.990, 0.132601
2023/06/29 02:02:44.938, True, 2.022, 0.132982
2023/06/29 02:02:45.442, True, 1.990, 0.133288
2023/06/29 02:02:45.946, True, 1.989, 0.133974
2023/06/29 02:02:46.442, True, 2.022, 0.133898
2023/06/29 02:02:46.946, True, 1.990, 0.131609
2023/06/29 02:02:47.442, True, 1.688, 0.133898
2023/06/29 02:02:47.945, True, 1.985, 0.131914
2023/06/29 02:02:48.450, True, 1.658, 0.134127
2023/06/29 02:02:48.946, True, 2.022, 0.133898
2023/06/29 02:02:49.450, True, 1.989, 0.134890
2023/06/29 02:02:49.954, True, 1.990, 0.133898
2023/06/29 02:02:50.450, True, 2.021, 0.134585
2023/06/29 02:02:50.954, True, 1.990, 0.133135
2023/06/29 02:02:51.458, True, 1.990, 0.130312
2023/06/29 02:02:51.954, True, 2.022, 0.134051
2023/06/29 02:02:52.458, True, 1.989, 0.133669
2023/06/29 02:02:52.962, True, 1.990, 0.133288
2023/06/29 02:02:53.458, True, 2.022, 0.133135
2023/06/29 02:02:53.962, True, 1.990, 0.133745
2023/06/29 02:02:54.466, True, 1.990, 0.134127
2023/06/29 02:02:54.962, True, 2.021, 0.134813
2023/06/29 02:02:55.466, True, 1.990, 0.134813
2023/06/29 02:02:55.970, True, 1.990, 0.134127
2023/06/29 02:02:56.466, True, 2.022, 0.132753
2023/06/29 02:02:56.970, True, 1.990, 0.132296
2023/06/29 02:02:57.474, True, 1.990, 0.134585
2023/06/29 02:02:57.970, True, 2.022, 0.132296
2023/06/29 02:02:58.474, True, 1.989, 0.132906
2023/06/29 02:02:58.978, True, 1.990, 0.134508
2023/06/29 02:02:59.474, True, 1.686, 0.132525
2023/06/29 02:02:59.978, True, 1.989, 0.132601
2023/06/29 02:03:00.482, True, 1.990, 0.131304
2023/06/29 02:03:00.978, True, 2.022, 0.132753
2023/06/29 02:03:01.482, True, 1.993, 0.132143
2023/06/29 02:03:01.986, True, 1.986, 0.132067
2023/06/29 02:03:02.482, True, 2.022, 0.133669
2023/06/29 02:03:02.986, True, 1.990, 0.132219
2023/06/29 02:03:03.490, True, 1.989, 0.131456
2023/06/29 02:03:03.986, True, 2.022, 0.134127
2023/06/29 02:03:04.490, True, 1.658, 0.129778
2023/06/29 02:03:04.994, True, 1.990, 0.132296
2023/06/29 02:03:05.490, True, 2.021, 0.131304
2023/06/29 02:03:05.994, True, 1.658, 0.133516
2023/06/29 02:03:06.498, True, 1.990, 0.132143
2023/06/29 02:03:06.994, True, 2.022, 0.132677
2023/06/29 02:03:07.498, True, 1.989, 0.133135
2023/06/29 02:03:07.994, True, 2.024, 0.130770
2023/06/29 02:03:08.498, True, 1.656, 0.131304
2023/06/29 02:03:09.002, True, 1.990, 0.132143
2023/06/29 02:03:09.498, True, 2.022, 0.132525
2023/06/29 02:03:10.002, True, 1.658, 0.132982
2023/06/29 02:03:10.506, True, 1.990, 0.133898
2023/06/29 02:03:11.002, True, 2.022, 0.131838
2023/06/29 02:03:11.506, True, 1.990, 0.133059
2023/06/29 02:03:12.010, True, 1.990, 0.131991
2023/06/29 02:03:12.506, True, 2.021, 0.131838
2023/06/29 02:03:13.010, True, 1.989, 0.132067
2023/06/29 02:03:13.514, True, 1.658, 0.132448
2023/06/29 02:03:14.018, True, 1.990, 0.133364
2023/06/29 02:03:14.514, True, 2.022, 0.132753
2023/06/29 02:03:15.018, True, 1.989, 0.133745
2023/06/29 02:03:15.522, True, 1.993, 0.132143
2023/06/29 02:03:16.018, True, 1.682, 0.131533
2023/06/29 02:03:16.522, True, 1.990, 0.132219
2023/06/29 02:03:17.026, True, 1.989, 0.132296
2023/06/29 02:03:17.522, True, 2.022, 0.134508
2023/06/29 02:03:18.026, True, 1.659, 0.133211
2023/06/29 02:03:18.522, True, 2.021, 0.129854
2023/06/29 02:03:19.026, True, 2.321, 0.132830
2023/06/29 02:03:19.530, True, 1.990, 0.131456
2023/06/29 02:03:20.026, True, 1.685, 0.131228
2023/06/29 02:03:20.530, True, 1.990, 0.131380
2023/06/29 02:03:21.034, True, 2.321, 0.131228
2023/06/29 02:03:21.530, True, 1.686, 0.132219
2023/06/29 02:03:22.033, True, 1.988, 0.132372
2023/06/29 02:03:22.538, True, 1.992, 0.132677
2023/06/29 02:03:23.034, True, 1.682, 0.132067
2023/06/29 02:03:23.538, True, 1.990, 0.131685
2023/06/29 02:03:24.042, True, 1.990, 0.132677
2023/06/29 02:03:24.546, True, 1.658, 0.132448
2023/06/29 02:03:25.042, True, 2.022, 0.132067
2023/06/29 02:03:25.546, True, 1.658, 0.133822
2023/06/29 02:03:26.042, True, 2.022, 0.132067
2023/06/29 02:03:26.546, True, 1.658, 0.131304
2023/06/29 02:03:27.050, True, 1.989, 0.130922
2023/06/29 02:03:27.554, True, 1.990, 0.130922
2023/06/29 02:03:28.050, True, 1.685, 0.134127
2023/06/29 02:03:28.554, True, 1.990, 0.132906
2023/06/29 02:03:29.058, True, 1.989, 0.132906
2023/06/29 02:03:29.554, True, 1.685, 0.130312
2023/06/29 02:03:30.057, True, 1.989, 0.132525
2023/06/29 02:03:30.562, True, 1.990, 0.133822
2023/06/29 02:03:31.057, True, 2.022, 0.130999
2023/06/29 02:03:31.562, True, 1.989, 0.130159
2023/06/29 02:03:32.066, True, 1.990, 0.132982
2023/06/29 02:03:32.562, True, 1.687, 0.133059
2023/06/29 02:03:33.066, True, 1.987, 0.133669
2023/06/29 02:03:33.562, True, 2.022, 0.132677
2023/06/29 02:03:34.066, True, 1.989, 0.135119
2023/06/29 02:03:34.570, True, 1.989, 0.132296
2023/06/29 02:03:35.074, True, 1.990, 0.134127
2023/06/29 02:03:35.570, True, 1.684, 0.133745
2023/06/29 02:03:36.074, True, 1.990, 0.131533
2023/06/29 02:03:36.578, True, 1.990, 0.133440
2023/06/29 02:03:37.074, True, 1.685, 0.130083
2023/06/29 02:03:37.578, True, 1.990, 0.132677
2023/06/29 02:03:38.082, True, 1.658, 0.129778
2023/06/29 02:03:38.578, True, 2.022, 0.131838
2023/06/29 02:03:39.082, True, 1.659, 0.132982
2023/06/29 02:03:39.586, True, 1.988, 0.131304
2023/06/29 02:03:40.090, True, 1.990, 0.130541
2023/06/29 02:03:40.586, True, 2.022, 0.130922
2023/06/29 02:03:41.090, True, 1.989, 0.133059
2023/06/29 02:03:41.586, True, 2.022, 0.133059
2023/06/29 02:03:42.090, True, 1.990, 0.130159
2023/06/29 02:03:42.594, True, 1.993, 0.131991
2023/06/29 02:03:43.097, True, 1.986, 0.132143
2023/06/29 02:03:43.594, True, 2.022, 0.130617
2023/06/29 02:03:44.098, True, 1.989, 0.131991
2023/06/29 02:03:44.602, True, 1.990, 0.129931
2023/06/29 02:03:45.098, True, 2.021, 0.131380
2023/06/29 02:03:45.602, True, 1.989, 0.130617
2023/06/29 02:03:46.106, True, 1.658, 0.131151
2023/06/29 02:03:46.602, True, 2.022, 0.131075
2023/06/29 02:03:47.106, True, 1.992, 0.131762
2023/06/29 02:03:47.610, True, 1.987, 0.131456
2023/06/29 02:03:48.106, True, 1.684, 0.131533
2023/06/29 02:03:48.610, True, 1.990, 0.131762
2023/06/29 02:03:49.114, True, 1.990, 0.132601
2023/06/29 02:03:49.610, True, 2.022, 0.130083
2023/06/29 02:03:50.114, True, 1.990, 0.133593
2023/06/29 02:03:50.618, True, 1.658, 0.131228
2023/06/29 02:03:51.114, True, 2.022, 0.133059
2023/06/29 02:03:51.617, True, 1.990, 0.132601
2023/06/29 02:03:52.122, True, 1.989, 0.130312
2023/06/29 02:03:52.618, True, 2.022, 0.133440
2023/06/29 02:03:53.122, True, 1.660, 0.132219
2023/06/29 02:03:53.626, True, 1.987, 0.132677
2023/06/29 02:03:54.130, True, 1.993, 0.130770
2023/06/29 02:03:54.626, True, 2.022, 0.131380
2023/06/29 02:03:55.130, True, 1.986, 0.133516
2023/06/29 02:03:55.634, True, 1.993, 0.132372
2023/06/29 02:03:56.130, True, 2.020, 0.131685
2023/06/29 02:03:56.634, True, 1.991, 0.129320
2023/06/29 02:03:57.138, True, 1.655, 0.132906
2023/06/29 02:03:57.642, True, 1.993, 0.130999
2023/06/29 02:03:58.137, True, 1.685, 0.131685
2023/06/29 02:03:58.642, True, 1.986, 0.131380
2023/06/29 02:03:59.146, True, 1.990, 0.132372
2023/06/29 02:03:59.642, True, 2.024, 0.130541
2023/06/29 02:04:00.146, True, 1.656, 0.132143
2023/06/29 02:04:00.650, True, 1.990, 0.130236
2023/06/29 02:04:01.146, True, 1.684, 0.130388
2023/06/29 02:04:01.650, True, 1.989, 0.130312
2023/06/29 02:04:02.154, True, 1.992, 0.131075
2023/06/29 02:04:02.650, True, 2.020, 0.130312
2023/06/29 02:04:03.154, True, 1.989, 0.131685
2023/06/29 02:04:03.658, True, 1.990, 0.131838
2023/06/29 02:04:04.154, True, 1.685, 0.131380
2023/06/29 02:04:04.658, True, 1.990, 0.131762
2023/06/29 02:04:05.162, True, 1.993, 0.132753
2023/06/29 02:04:05.658, True, 2.018, 0.132372
2023/06/29 02:04:06.162, True, 1.990, 0.131228
2023/06/29 02:04:06.658, True, 2.021, 0.129473
2023/06/29 02:04:07.162, True, 1.990, 0.132219
2023/06/29 02:04:07.666, True, 1.658, 0.129015
2023/06/29 02:04:08.162, True, 2.025, 0.132753
2023/06/29 02:04:08.666, True, 1.986, 0.133364
2023/06/29 02:04:09.170, True, 1.993, 0.130999
2023/06/29 02:04:09.674, True, 1.656, 0.132677
2023/06/29 02:04:10.170, True, 2.021, 0.131685